Location: B?lite?ti
(46.2833°N, 22.7333°E)
Time: 15:53:20
(UTC+00:00)

Cosmos 1937 Rocket - Pass Details

Date: 24 January 2021
Orbit: 746 x 780 km, 74.0° (Epoch: 01 March)

Event Time Altitude Azimuth Distance (km) Brightness Sun altitude
Rises 18:01:01 0° 217° (SW) 3,245 7.2 -27.3°
Reaches altitude 10° 18:03:28 10° 223° (SW) 2,325 6.5 -27.7°
Maximum altitude 18:08:34 47° 298° (WNW) 1,025 4.4 -28.6°
Enters shadow 18:10:46 30° 352° (N) 1,367 4.8 -29.0°
